Weather History for Monarch Pass, CO

Change the Weather History Date:

Monday, January 21, 2013

  Actual Average (KGUC) Record (KGUC)
Temperature  
Mean Temperature 18 °F -  
Max Temperature 26 °F 23 °F 37 °F (2000)
Min Temperature 10 °F 0 °F -23 °F (2008)
Degree Days  
Heating Degree Days 47    
Moisture  
Dew Point 1 °F    
Average Humidity 49    
Maximum Humidity 62    
Minimum Humidity 36    
Precipitation  
Precipitation 0.00 in - - ()
Sea Level Pressure  
Sea Level Pressure 30.39 in    
Wind  
Wind Speed 28 mph (SW)    
Max Wind Speed 33 mph    
Max Gust Speed 44 mph    
Averages and records for this station are not official NWS values.
T = Trace of Precipitation, MM = Missing Value Source: NWS Daily Summary

Daily Weather History Graph

Daily Weather History Graph

Search for Another Location

Airport:

Trip Planner

Search our weather history database for the weather conditions in past years. The results will help you decide how hot, cold, wet, or windy it might be!

Date:

Astronomy

Jan. 21, 2013 Rise Set
Actual Time 7:18 AM MST 5:15 PM MST
Civil Twilight 6:49 AM MST 5:44 PM MST
Nautical Twilight 6:17 AM MST 6:16 PM MST
Astronomical Twilight 5:45 AM MST 6:47 PM MST
Moon 12:57 PM MST (1/21) 2:49 AM MST (1/21)
Length of Visible Light 10h 54m
Length of Day
9h 57m
Waxing Gibbous, 75% of the Moon is Illuminated
Jan 21
Waxing Gibbous
Jan 26
Full
Feb 3
Last Quarter
Feb 10
New
Feb 17
First Quarter

Hourly Weather History & Observations

Time (MST) Temp. Windchill Dew Point Humidity Pressure Visibility Wind Dir Wind Speed Gust Speed Precip Events Conditions
12:17 AM 15.8 °F - -0.4 °F 49% 30.38 in - North - - N/A   Clear
12:37 AM 17.6 °F - -0.4 °F 45% 30.38 in - North - - N/A   Clear
12:57 AM 15.8 °F - -0.4 °F 49% 30.38 in - North - - N/A   Clear
1:17 AM 14.0 °F - -0.4 °F 53% 30.37 in - North - - N/A   Clear
1:37 AM 14.0 °F - -0.4 °F 53% 30.37 in - North - - N/A   Clear
1:57 AM 12.2 °F - -0.4 °F 57% 30.36 in - North - - N/A   Clear
2:17 AM 12.2 °F - -0.4 °F 57% 30.37 in - North - - N/A   Clear
2:37 AM 12.2 °F - -0.4 °F 57% 30.37 in - North - - N/A   Clear
2:57 AM 12.2 °F - -0.4 °F 57% 30.36 in - North - - N/A   Clear
3:17 AM 12.2 °F - -0.4 °F 57% 30.37 in - North - - N/A   Clear
3:57 AM 12.2 °F - -0.4 °F 57% 30.36 in - North - - N/A   Clear
4:17 AM 12.2 °F - -0.4 °F 57% 30.36 in - North - - N/A   Clear
4:37 AM 10.4 °F - -0.4 °F 62% 30.35 in - North - - N/A   Clear
4:57 AM 12.2 °F - -0.4 °F 57% 30.35 in - North - - N/A   Clear
5:17 AM 10.4 °F - -0.4 °F 62% 30.36 in - North - - N/A   Clear
5:37 AM 10.4 °F - -0.4 °F 62% 30.36 in - North - - N/A   Clear
5:57 AM 10.4 °F - -0.4 °F 62% 30.36 in - North - - N/A   Clear
6:17 AM 10.4 °F - -0.4 °F 62% 30.35 in - North - - N/A   Clear
6:37 AM 10.4 °F - -0.4 °F 62% 30.35 in - North - - N/A   Clear
6:57 AM 12.2 °F - -0.4 °F 57% 30.36 in - North - - N/A   Clear
7:17 AM 10.4 °F - -0.4 °F 62% 30.37 in - North - - N/A   Clear
7:37 AM 10.4 °F - -0.4 °F 62% 30.37 in - North - - N/A   Clear
7:57 AM 12.2 °F - -0.4 °F 57% 30.37 in - North - - N/A   Clear
8:17 AM 12.2 °F - -0.4 °F 57% 30.37 in - North - - N/A   Clear
8:37 AM 12.2 °F - -0.4 °F 57% 30.39 in - North - - N/A   Clear
8:57 AM 14.0 °F - -0.4 °F 53% 30.40 in - North - - N/A   Clear
9:17 AM 14.0 °F - -0.4 °F 53% 30.39 in - North - - N/A   Clear
9:37 AM 14.0 °F - -0.4 °F 53% 30.39 in - North - - N/A   Clear
9:57 AM 15.8 °F - -0.4 °F 49% 30.39 in - North - - N/A   Clear
10:17 AM 17.6 °F -2.8 °F 1.4 °F 49% 30.39 in - WSW 33.4 mph 40.3 mph N/A   Clear
10:37 AM 17.6 °F -1.6 °F 1.4 °F 49% 30.41 in - WSW 28.8 mph 35.7 mph N/A   Clear
10:57 AM 19.4 °F -0.0 °F 1.4 °F 46% 30.40 in - SW 32.2 mph 40.3 mph N/A   Clear
11:17 AM 19.4 °F 0.2 °F 1.4 °F 46% 30.40 in - SW 31.1 mph 41.4 mph N/A   Clear
11:37 AM 19.4 °F 0.5 °F 1.4 °F 46% 30.41 in - SW 29.9 mph 39.1 mph N/A   Clear
11:57 AM 21.2 °F 2.2 °F 1.4 °F 42% 30.39 in - SW 33.4 mph 41.4 mph N/A   Clear
12:17 PM 21.2 °F 3.5 °F 1.4 °F 42% 30.40 in - SW 27.6 mph 43.7 mph N/A   Clear
12:37 PM 21.2 °F 3.5 °F 1.4 °F 42% 30.40 in - SW 27.6 mph 40.3 mph N/A   Clear
12:57 PM 23.0 °F 7.2 °F 3.2 °F 43% 30.40 in - SW 23.0 mph 32.2 mph N/A   Clear
1:17 PM 23.0 °F 6.3 °F 3.2 °F 43% 30.40 in - SW 26.5 mph 35.7 mph N/A   Clear
1:37 PM 23.0 °F 7.2 °F 3.2 °F 43% 30.40 in - SW 23.0 mph 28.8 mph N/A   Clear
1:57 PM 24.8 °F 8.7 °F 3.2 °F 40% 30.40 in - SW 26.5 mph 35.7 mph N/A   Clear
2:17 PM 24.8 °F 9.3 °F 3.2 °F 40% 30.39 in - SW 24.2 mph - N/A   Clear
2:37 PM 26.6 °F 11.7 °F 3.2 °F 37% 30.39 in - SW 24.2 mph 32.2 mph N/A   Clear
2:57 PM 26.6 °F 11.4 °F 3.2 °F 37% 30.40 in - SW 25.3 mph 33.4 mph N/A   Clear
3:17 PM 26.6 °F 13.4 °F 3.2 °F 37% 30.41 in - SW 18.4 mph 27.6 mph N/A   Clear
3:37 PM 24.8 °F 11.5 °F 3.2 °F 40% 30.42 in - SW 17.3 mph 24.2 mph N/A   Clear
3:57 PM 24.8 °F 11.1 °F 1.4 °F 36% 30.42 in - WSW 18.4 mph 26.5 mph N/A   Clear
4:17 PM 24.8 °F 10.3 °F 1.4 °F 36% 30.41 in - WSW 20.7 mph 24.2 mph N/A   Clear
4:37 PM 23.0 °F 6.9 °F 1.4 °F 39% 30.41 in - WSW 24.2 mph 32.2 mph N/A   Clear
4:57 PM 21.2 °F 4.5 °F 1.4 °F 42% 30.40 in - WSW 24.2 mph 31.1 mph N/A   Clear
5:17 PM 21.2 °F 3.9 °F 1.4 °F 42% 30.40 in - SW 26.5 mph 32.2 mph N/A   Clear
5:57 PM 19.4 °F - 1.4 °F 46% 30.41 in - North - - N/A   Clear
6:17 PM 19.4 °F - 1.4 °F 46% 30.42 in - North - - N/A   Clear
6:37 PM 19.4 °F - 1.4 °F 46% 30.41 in - North - - N/A   Clear
6:57 PM 19.4 °F - 1.4 °F 46% 30.42 in - North - - N/A   Clear
7:17 PM 19.4 °F - 1.4 °F 46% 30.43 in - North - - N/A   Clear
7:37 PM 17.6 °F - 1.4 °F 49% 30.42 in - North - - N/A   Clear
7:57 PM 17.6 °F - 1.4 °F 49% 30.42 in - North - - N/A   Clear
8:17 PM 17.6 °F - 1.4 °F 49% 30.42 in - North - - N/A   Clear
8:37 PM 17.6 °F - 1.4 °F 49% 30.43 in - North - - N/A   Clear
8:57 PM 17.6 °F - 1.4 °F 49% 30.42 in - North - - N/A   Clear
9:17 PM 17.6 °F - 1.4 °F 49% 30.43 in - North - - N/A   Clear
9:37 PM 17.6 °F - 1.4 °F 49% 30.42 in - North - - N/A   Clear
9:57 PM 17.6 °F - 1.4 °F 49% 30.43 in - North - - N/A   Clear
10:17 PM 17.6 °F - -0.4 °F 45% 30.41 in - North - - N/A   Clear
10:37 PM 17.6 °F - -0.4 °F 45% 30.43 in - North - - N/A   Clear
10:57 PM 19.4 °F - -4.0 °F 36% 30.44 in - North - - N/A   Clear
11:17 PM 19.4 °F - -2.2 °F 39% 30.43 in - North - - N/A   Clear
11:37 PM 17.6 °F - -0.4 °F 45% 30.43 in - North - - N/A   Clear
11:57 PM 17.6 °F - -0.4 °F 45% 30.42 in - North - - N/A   Clear